Starlink 33844

operational
NORAD ID: 63768 Int'l Des: 2025-089 Owner: SPXS Country: US Constellation: starlink
LEOCIRCULAR

Über Starlink 33844

Beschreibung wird geladen...

Live-Position

3D-Globus wird geladen...

Nächste Überflüge

Höhenverlauf

Altitude vs Time

uPlot chart will show altitude changes over time

Zweizeiliger Elementsatz

1 63768U 25089T 25305.68366155 .00013630 00000-0 50393-3 0 9995
2 63768 43.0038 47.8888 0001271 244.3742 115.6979 15.27577700 29381
Epoch: 1. Nov. 2025 • Age: 45 hours

Aktueller Status

Höhe 483.4 km
Geschwindigkeit 7.63 km/s
Subsatellitenpunkt -6.55°S, 16.26°W
Startdatum 29. Apr. 2025
Alter 0.5 years
Typ internet

Technische Details

Klassifizierung Payload
Masse 575.00 kg
Trockenmasse 530.00 kg
Gesamtmasse 575.00 kg
Länge 0.30 m
Durchmesser 4.10 m
Spannweite 29.00 m
Form Box + pan
Hersteller SPXS
Bus-Typ Starlink V2MO
Phasenstatus In Orbit
Besitzer/Staat SPXS/US

Große Konstellationen

Loading constellations...